Location: Montbazon
(47.2835°N, 0.6999°E)
Time: 16:47:07
(UTC+00:00)

H-2A R/B - Pass Details

Date: 08 November 2025
Orbit: 728 x 830 km, 98.3° (Epoch: 09 December)

Event Time Altitude Azimuth Distance (km) Brightness Sun altitude
Rises 03:24:53 0° 13° (NNE) 3,216 5.5 -35.0°
Reaches altitude 10° 03:27:13 10° 14° (NNE) 2,275 4.7 -34.6°
Enters shadow 03:27:56 14° 14° (NNE) 1,987 4.4 -34.5°
